THORAD DELTA 1 DEB, 8146

Orbit data source: Space-Track

THORAD DELTA 1 DEB, 8146 is space debris in SSO originally from a launch on Fri, 15 Nov 1974 UTC launched from the Air Force Western Test Range (AFWTR). Debris objects in space refer to the collection of defunct objects orbiting the Earth. Examples of debris include non-operational satellites, rocket bodies, and fragments generated from explosions, collisions, or faulty payload assembly.

Loading next visibility...
Identifier
8146, 1974-089Q
Orbit
SSO
Country
Flag of USUS
Related business
Manufacturer
Unknown
Mission
Spacecraft
Bus & Motor
Unknown
Mass
Unknown
Launch date (UTC)
1974-11-15 (52 years ago)
Launch vehicle
Unknown
Launch site
Air Force Western Test Range (AFWTR)
Object type
Payload
Rocket body
Debris
Shape & HBR
Unknown shape, 0.2 m
Radar Cross Section
Medium (>0.1 m² and <1 m²)

Expand to show TLE details & history
Last TLE update: 11 hours ago

TLE from 11 hours ago
0 THORAD DELTA 1 DEB
1  8146U 74089Q   26165.98423837  .00000052  00000-0  56465-3 0  9997
2  8146 102.0050 164.1946 0185716 147.5412 272.0528 12.54926621360847
Epoch: 2026-06-14T23:37Z
TLE epoch observation values (Epoch: 2026-06-14T23:37:18.195Z)
Latitude
55.64624°
Longitude
-111.44181°
Altitude
1,450.485 km
Speed
7.143 km/s
True Right ascension
09h 44m 38s
True Declination
55° 30' 00"
Sunlit
Object was in daylight at epoch
Visualization orbit readout
Latitude
Unknown
Longitude
Unknown
Altitude
Unknown
Speed
Unknown
Apparent Right ascension
Unknown
Apparent Declination
Unknown
Sunlit
N/A
Visualization observer readout
Local Sidereal Time
21:34:10
Azimuth
Unknown
Elevation
Unknown
Doppler factor
Unknown
Orbital elements
Apogee altitude
1,586.733 km
Perigee altitude
1,296.287 km
Semi-major axis
7,819.647 km
Eccentricity
0.01857
Inclination
102.005°
RAAN
164.1946°
Arg. of periapsis
147.5412°
True anomaly
269.92474°
Mean anomaly
272.0528°
Eccentric anomaly
270.98888°
Mean motion
3.13879 °/min
Orbital period
114.69 mins
BSTAR
0.00056465
Loading maneuver chart data...
Computing Atmospheric mass density...
Loading historical data...
Loading historical data...
Loading historical data...
Loading historical data...
Loading historical data...
Loading historical data...
Loading historical data...

Documentation

Showing up to 5 results
|